Overview Statistics Trail Chart Weather Telemetry Raw packets
 

This is the latest recevied weather packets stored in our database for station/object LU4EGV-13. If no packets are shown the sender has not sent any weather packets the latest 10 day(s).

<< 14 15 16 17 18 19 20 >>
Time Temp. Humidity Pressure Rain* Wind** Luminosity Snow
1788456057 17.78° C 57% 1008.6 hPa 0 mm - - -
1788455461 17.22° C 57% 1008.8 hPa 0 mm - - -
1788454847 17.78° C 55% 1008.8 hPa 0 mm - - -
1788454242 17.22° C 55% 1008.6 hPa 0 mm - - -
1788453633 17.22° C 54% 1008.5 hPa 0 mm - - -
1788453034 17.78° C 52% 1009 hPa 0 mm - - -
1788452427 17.22° C 54% 1008.9 hPa 0 mm - - -
1788451813 17.78° C 54% 1009.3 hPa 0 mm - - -
1788451208 16.67° C 56% 1009.1 hPa 0 mm - - -
1788450601 16.67° C 58% 1009 hPa 0 mm - - -
1788449995 16.11° C 58% 1009.1 hPa 0 mm - - -
1788449389 16.11° C 60% 1009.2 hPa 0 mm - - -
1788448782 16.11° C 59% 1009 hPa 0 mm - - -
1788448176 16.11° C 59% 1009.4 hPa 0 mm - - -
1788447570 16.11° C 61% 1009.3 hPa 0 mm - - -
1788446964 15.56° C 62% 1008.6 hPa 0 mm - - -
1788446358 15.56° C 64% 1008.9 hPa 0 mm - - -
1788445751 15.56° C 65% 1009.2 hPa 0 mm - - -
1788445145 15.56° C 65% 1010.1 hPa 0 mm - - -
1788444539 15.56° C 66% 1008.2 hPa 0 mm - - -
1788443932 15.56° C 69% 1008.9 hPa 0 mm - - -
1788443327 15° C 73% 1008 hPa 0 mm - - -
1788442720 15° C 77% 1008.3 hPa 0 mm - - -
1788442125 14.44° C 79% 1008.6 hPa 0 mm - - -
1788441509 13.89° C 84% 1009.5 hPa 0 mm - - -

* Rain latest hour (hover to see other rain measurements)
** Current wind speed in m/s (hover to see current wind gust speed)